Other Public Products
Issued by NWS Charleston, SC

Home | Current Version | Previous Version | Text Only | Print | Product List | Glossary On
Versions: 1 2 3 4 5 6 7 8 9 10 11 12 13 14 15 16 17 18 19 20 21 22 23 24 25 26 27 28 29 30 31 32 33 34 35 36 37 38 39 40 41 42 43 44 45 46 47 48 49 50
000
FPUS82 KCHS 180027
OPUCHS

TEST...KCHS/KSAV Gateway Observations...TEST
National Weather Service Charleston SC
800 PM EDT THU AUG 17 2017

NOTE: "fair" indicates few or no clouds below 12,000 feet with no
significant weather and/or obstructions to visibility.

SCZ050-WAZ558-NCZ071-TXZ119-213-PAZ071-DCZ001-FLZ074-172-MI076-
NYZ176-178-MAZ016-IL014-TNZ027-NJZ106-GAZ044-MD014-180100-

...Gateway Observations for Charleston International...

CITY           SKY/WX    TMP DP  RH WIND       PRES   REMARKS
Chas Airport   CLOUDY    84  77  79 SE6       29.98S HX  94
6HR MIN TEMP:  84; 6HR MAX TEMP:  96; 6HR PCP: TRACE;

Seattle        MOSUNNY   74  54  49 W7        30.16F
6HR MIN TEMP:  64; 6HR MAX TEMP:  75;

Charlotte      MOCLDY    87  76  69 W5        29.97S HX  97
6HR MIN TEMP:  87; 6HR MAX TEMP:  94;

Dallas DFW     CLOUDY    86  66  51 SW8       29.94S
6HR MIN TEMP:  86; 6HR MAX TEMP:  93;

Dallas Love    CLOUDY    86  77  74 E3        29.95S HX  97
6HR MIN TEMP:  85; 6HR MAX TEMP:  92;

Philladelphia  MOCLDY    81  67  62 S8        29.96S
6HR MIN TEMP:  81; 6HR MAX TEMP:  90;

Wash National  PTCLDY    84  75  74 S13       29.93F HX  92
6HR MIN TEMP:  83; 6HR MAX TEMP:  89;

Baltimore      PTCLDY    78  74  87 SE6       29.93F
6HR MIN TEMP:  78; 6HR MAX TEMP:  85; 6HR PCP: TRACE;

Miami          CLOUDY    88  74  63 E7        30.02S HX  96
6HR MIN TEMP:  88; 6HR MAX TEMP:  94;

Detroit        PTCLDY    81  72  74 S16       29.71F
6HR MIN TEMP:  74; 6HR MAX TEMP:  82; 6HR PCP:  0.19;

Newark         MOCLDY    75  68  78 SE6       29.97S
6HR MIN TEMP:  74; 6HR MAX TEMP:  80;

Laguardia      MOCLDY    76  68  76 S10       29.97S
6HR MIN TEMP:  76; 6HR MAX TEMP:  82;

J F K          MOCLDY    74  70  87 SE7       29.99S
6HR MIN TEMP:  74; 6HR MAX TEMP:  80;

Boston Logan   MOCLDY    78  45  30 W9        29.97R
6HR MIN TEMP:  78; 6HR MAX TEMP:  83;

Ft. Lauderdale CLOUDY    86  75  69 SE10      30.01S HX  95
6HR MIN TEMP:  86; 6HR MAX TEMP:  91;

Chicago O`Hare MOCLDY    80  64  58 W12       29.72S
6HR MIN TEMP:  79; 6HR MAX TEMP:  82;

Chicago Midway MOCLDY    80  65  59 W16       29.73S
6HR MIN TEMP:  80; 6HR MAX TEMP:  84;

Houston Bush   MOSUNNY   93  71  48 S8        29.94S HX 100
6HR MIN TEMP:  93; 6HR MAX TEMP:  97;

Houston Hobby  MOSUNNY   93  72  50 S12       29.94F HX 101
6HR MIN TEMP:  93; 6HR MAX TEMP:  99;

Nashville      MOCLDY    85  72  65 SW6       29.94S HX  91
6HR MIN TEMP:  85; 6HR MAX TEMP:  91;

Atlanta        PTCLDY    85  69  58 W13       30.02R
6HR MIN TEMP:  85; 6HR MAX TEMP:  90;


$$

GAZ044-118-TXZ119-213-NCZ071-DCZ001-MDZ014-506-PAZ021-071-NJZ106-
NYZ176-178-MAZ106-OHZ011-021-055-MIZ076-KYZ091-ILZ014-INZ047-
MNZ060-ONZ431-180100-

...Gateway Observations for Savannah International...

CITY           SKY/WX    TMP DP  RH WIND       PRES   REMARKS
Savannah Arpt  PTCLDY    86  77  74 S12       29.99R HX  97
6HR MIN TEMP:  86; 6HR MAX TEMP:  96; 6HR PCP: TRACE;

Atlanta        PTCLDY    85  69  58 W13       30.02R
6HR MIN TEMP:  85; 6HR MAX TEMP:  90;

Charlotte      MOCLDY    87  76  69 W5        29.97S HX  97
6HR MIN TEMP:  87; 6HR MAX TEMP:  94;

Dallas DFW     CLOUDY    86  66  51 SW8       29.94S
6HR MIN TEMP:  86; 6HR MAX TEMP:  93;

Houston Bush   MOSUNNY   93  71  48 S8        29.94S HX 100
6HR MIN TEMP:  93; 6HR MAX TEMP:  97;

Wash National  PTCLDY    84  75  74 S13       29.93F HX  92
6HR MIN TEMP:  83; 6HR MAX TEMP:  89;

Wash Dulles    MOCLDY    82  75  79 SE8       29.92F
6HR MIN TEMP:  82; 6HR MAX TEMP:  89; 6HR PCP: TRACE;

Baltimore      PTCLDY    78  74  87 SE6       29.93F
6HR MIN TEMP:  78; 6HR MAX TEMP:  85; 6HR PCP: TRACE;

Philadelphia   MOCLDY    81  67  62 S8        29.96S
6HR MIN TEMP:  81; 6HR MAX TEMP:  90;

Newark         MOCLDY    75  68  78 SE6       29.97S
6HR MIN TEMP:  74; 6HR MAX TEMP:  80;

Laguardia      MOCLDY    76  68  76 S10       29.97S
6HR MIN TEMP:  76; 6HR MAX TEMP:  82;

J F K          MOCLDY    74  70  87 SE7       29.99S
6HR MIN TEMP:  74; 6HR MAX TEMP:  80;

Boston         MOCLDY    78  45  30 W9        29.97R
6HR MIN TEMP:  78; 6HR MAX TEMP:  83;

Pittsburg      LGT RAIN  76  72  87 S6        29.87F
6HR MIN TEMP:  76; 6HR MAX TEMP:  88; 6HR PCP:  0.11;

Akron          CLOUDY    80  72  76 SW14      29.83S
6HR MIN TEMP:  80; 6HR MAX TEMP:  89; 6HR PCP: TRACE;

Cleveland      CLOUDY    82  73  74 S10G18    29.79F
6HR MIN TEMP:  81; 6HR MAX TEMP:  92; 6HR PCP:  0.07;

Cincinnati     TSTM      77  76  96 S13       29.87S
6HR MIN TEMP:  75; 6HR MAX TEMP:  90; 6HR PCP:  0.32;

Columbus       CLOUDY    73  73  99 S8        29.85R
Detroit        PTCLDY    81  72  74 S16       29.71F
6HR MIN TEMP:  74; 6HR MAX TEMP:  82; 6HR PCP:  0.19;

Chicago O`Hare MOCLDY    80  64  58 W12       29.72S
6HR MIN TEMP:  79; 6HR MAX TEMP:  82;

Minneapolis    PTSUNNY   72  61  68 NW20G25   29.78R
6HR MIN TEMP:  65; 6HR MAX TEMP:  74;

Indianapolis   MOCLDY    82  68  62 SW13      29.83R
6HR MIN TEMP:  82; 6HR MAX TEMP:  88;

Toronto Canada MOCLDY    66  64  94 E9        29.79

$$




USA.gov is the U.S. government's official web portal to all federal, state and local government web resources and services.